星链-36725(STARLINK-36725)

导读

STARLINK-36725是美国SpaceX星链(Starlink)计划中的卫星,于2026年2月20日发射升空。作为星链星座组网的组成部分,它承担着为全球提供高速互联网接入服务的使命,尤其覆盖偏远地区与网络基础设施匮乏区域,依托低轨轨道布局,可降低通信延迟,助力全球互联互通,延续了星链系统持续扩容的建设进程。

Basic Information
目录编号:
67861
目录名称:
STARLINK-36325
国际标识:
2026-034M
轨道中心:
EARTH
卫星名称:
星链-36725
卫星全名:
星链-36725(STARLINK-36725)
卫星状态:
在轨 (已飞行197 天)
发射日期:
2026-02-20 UTC
国别 :
美国 (US)
星等 :
--
Orbit Information
数据来源 国际轨道数据
星历时间: 2026-09-05T07:18:41+0800
14小时前
查看轨道信息
半长轴: 6840.882km
偏心率: 0.0001987
轨道倾角: 53.161°
近地点辐角 37.640°
升交点赤经 90.148°
平近点角 322.474°
近地点: 461.385km
远地点: 464.105km
周期: 93.849分钟
每日圈数: 15.343862
Detailed Information
固有亮度:
5
最大亮度:
2.5
卫星平台:
Starlink V1.0
覆盖范围:
全球
运营商:
太空探索技术公司
运营商所在国:
美国
制造商(研发单位):
太空探索技术公司
制造商所在国:
美国
使用方式:
暂无
Satellite Introduction
Starlink 计划是 SpaceX 推出的全球卫星互联网项目,通过发射低轨道卫星,为全球尤其是偏远地区提供高速、低延迟的互联网服务。自 2019 年起,Starlink 已部署数千颗卫星,旨在缩小全球数字鸿沟,推动互联网普及。该项目还为军事、航空等行业提供通信支持,带来广泛经济效益。
2D Orbit Map
3D Orbit Map
Orbit Altitude Analysis Chart
Orbit Inclination Analysis Chart
Orbit Comprehensive Analysis Chart
View Comprehensive Chart
Conjunction Data List
Event ID Objects TCA Miss Dist (km) Collision Risk Probability Collision Risk Index (CRI) Action
CDM_260906-194905-419806-786121
2026-09-06T
19:49:31+0000
2.534 km
极远距离
1.528381E-6 低风险 0.39
CDM_260906-125305-285806-786121
2026-09-06T
12:53:54+0000
2.932 km
极远距离
1.223741E-6 低风险 0.37